Location: Moscow
(55.7500°N, 37.5830°E)
Time: 10:58:48
(UTC+03:00)

Explorer 7 - Pass Details

Date: 07 December 2021
Orbit: 483 x 674 km, 50.3° (Epoch: 19 January)

Event Time Altitude Azimuth Distance (km) Brightness Sun altitude
Rises 06:48:45 0° 242° (WSW) 2,815 - -14.8°
Exits shadow 06:51:01 - 235° (SW) 1,956 9.3 -14.5°
Reaches altitude 10° 06:51:13 10° 234° (SW) 1,880 9.2 -14.5°
Maximum altitude 06:55:06 34° 169° (SSE) 910 8.2 -14.0°
Drops below altitude 10° 06:58:47 10° 103° (ESE) 1,777 10.9 -13.5°
Sets 07:01:03 0° 94° (E) 2,637 11.9 -13.2°
